Home   Weather   Stevenson   Past weeks
Flag for USA

Past Weather in Stevenson, Washington, USA — Yesterday and Last 2 Weeks

Now
59 °F

Sunny.


Feels Like: 59 °F
Forecast: 64 / 45 °F
Wind: No wind

Location: Portland-Troutdale Airport

Current Time: Oct 15, 2019 at 11:43:57 am

Latest Report: Oct 15, 2019 at 10:53 am


Visibility: 10 mi

Pressure: 30.06 "Hg

Humidity: 49%

Dew Point: 40 °F

Location of StevensonLocation

Past Weather in Stevenson — Graph

°F

Stevenson Temperature Yesterday

Maximum temperature yesterday: 63 °F (at 3:53 pm)
Minimum temperature yesterday: 40 °F (at 6:53 am)
Average temperature yesterday: 49 °F

High & Low Weather Summary for the Past Weeks

 TemperatureHumidityPressure
High70 °F (Oct 6, 3:53 pm)96% (Oct 5, 5:09 am)30.41 "Hg (Oct 5, 5:09 am)
Low36 °F (Oct 9, 5:13 am)27% (Oct 1, 2:53 pm)29.90 "Hg (Oct 7, 10:53 pm)
Average52 °F66%30.13 "Hg
* Reported Sep 30 9:53 am — Oct 15 9:53 am, Stevenson. Weather by CustomWeather, © 2019

Note: Actual official high and low records may vary slightly from our data, if they occured in-between our weather recording intervals... More about our weather records

Advertising

Stevenson Weather History for the Previous 24 Hours

Scroll right to see more
 ConditionsComfort  
Time TempWeatherWind HumidityBarometerVisibility
9:53 am
Tue, Oct 15
56 °FSunny.No wind53%30.04 "Hg10 mi
8:53 am55 °FSunny.8 mph53%30.01 "Hg10 mi
7:53 am54 °FSunny.15 mph53%29.99 "Hg10 mi
6:53 am54 °FClear.15 mph53%29.99 "Hg10 mi
5:53 am54 °FClear.22 mph53%29.98 "Hg10 mi
4:53 am54 °FClear.15 mph55%29.98 "Hg10 mi
3:53 am55 °FClear.15 mph53%29.98 "Hg10 mi
2:53 am55 °FClear.15 mph55%29.99 "Hg10 mi
11:53 pm
Mon, Oct 14
47 °FClear.No wind83%30.01 "Hg10 mi
10:53 pm46 °FClear.No wind86%30.02 "Hg10 mi
9:53 pm46 °FClear.3 mph83%30.02 "Hg10 mi
8:53 pm50 °FClear.No wind77%30.03 "Hg10 mi
7:53 pm51 °FClear.3 mph71%30.01 "Hg10 mi
6:53 pm57 °FClear.3 mph55%30.01 "Hg10 mi
5:53 pm61 °FSunny.3 mph50%30.01 "Hg10 mi
4:53 pm63 °FSunny.5 mph48%30.02 "Hg10 mi
3:53 pm63 °FSunny.6 mph50%30.03 "Hg10 mi
2:53 pm62 °FSunny.3 mph52%30.05 "Hg10 mi
1:53 pm60 °FSunny.6 mph58%30.06 "Hg10 mi
12:53 pm57 °FSunny.5 mph67%30.09 "Hg10 mi
11:53 am53 °FSunny.3 mph74%30.09 "Hg10 mi
11:08 am51 °FScattered clouds.3 mph83%30.11 "Hg9 mi
Weather by CustomWeather, © 2019

See weather overview